C/2019 F1 ( ATLAS-Africano )

Japanese version
Home page
Updated on August 14, 2022

---------------------------------------------------------------------

* Profile

Discovery Date March 28 and 29, 2019
Magnitude 18.3 mag, 18.4 mag
Discoverer Asteroid Terrestrial-Impact Last Alert System (ATLAS) search program, B. M. Africano (Mount Lemmon Survey)

* Pictures

* Orbital Elements

Epoch 2022 Jan. 21.0 TT = JDT 2459600.5
T 2021 June 22.95585 TT                                 Rudenko
q   3.5959472            (2000.0)            P               Q
z  -0.0010332      Peri.  251.15570     +0.09445321     +0.85667071
 +/-0.0000007      Node    38.71700     -0.27665846     +0.51194156
e   1.0037155      Incl.   54.17548     -0.95631516     -0.06349127
From 1379 observations 2019 Feb. 8-2022 Jan. 27, mean residual 0".4.

* Finding Charts

* Magnitudes Graph

        m1 = 8.0 + 5 log d + 7.0 log r(t + 150)

---------------------------------------------------------------------

The orbital elements are published on M.P.E.C. 2022-C56.
The charts are made with StellaNavigator Ver.10 (AstroArts).
The magnitudes graphs are made with Comet for Windows.

---------------------------------------------------------------------

Copyright(C) Seiichi Yoshida (comet@aerith.net). All rights reserved.